Waarnemingen

Advertentie
Mijn weer
Capo Frasca, Italië (16539): temperatuur & dauwpunt: 15.05.2018 19:00:00 - 21.05.2018 19:00:00 (CEST)Capo Frasca, Italië (16539): windsnelheid: 15.05.2018 19:00:00 - 21.05.2018 19:00:00 (CEST)Capo Frasca, Italië (16539): windrichting: 15.05.2018 19:00:00 - 21.05.2018 19:00:00 (CEST)Capo Frasca, Italië (16539): luchtdruk: 15.05.2018 19:00:00 - 21.05.2018 19:00:00 (CEST)Capo Frasca, Italië (16539): zicht: 15.05.2018 19:00:00 - 21.05.2018 19:00:00 (CEST)
Datum & Tijd tt [°C] td [°C] ff [km/u] ff [kn] dd ppp [hPa] vv [km]
21.05.2018 19:00:00 - - - - - - -
21.05.2018 18:00:00 - - - - - - -
21.05.2018 17:00:00 16,4 15,6 9 5 Z 1011,8 10
21.05.2018 16:00:00 - - - - - - -
21.05.2018 15:00:00 - - - - - - -
21.05.2018 14:00:00 17,6 17,0 9 5 OZO 1011,9 15
21.05.2018 13:00:00 - - - - - - -
21.05.2018 12:00:00 - - - - - - -
21.05.2018 11:00:00 15,6 15,1 11 6 ZO 1012,4 3,0
21.05.2018 10:00:00 - - - - - - -
21.05.2018 09:00:00 - - - - - - -
21.05.2018 08:00:00 16,0 15,4 13 7 O 1012,1 12
21.05.2018 07:00:00 - - - - - - -
21.05.2018 06:00:00 - - - - - - -
21.05.2018 05:00:00 - - - - - - -
21.05.2018 04:00:00 - - - - - - -
21.05.2018 03:00:00 - - - - - - -
21.05.2018 02:00:00 - - - - - - -
21.05.2018 01:00:00 - - - - - - -
21.05.2018 00:00:00 - - - - - - -
20.05.2018 23:00:00 - - - - - - -
20.05.2018 22:00:00 - - - - - - -
20.05.2018 21:00:00 - - - - - - -
20.05.2018 20:00:00 17,0 17,0 13 7 ZW 1012,5 15
20.05.2018 19:00:00 - - - - - - -
20.05.2018 18:00:00 - - - - - - -
20.05.2018 17:00:00 18,6 18,6 22 12 ZW 1013,1 20
20.05.2018 16:00:00 - - - - - - -
20.05.2018 15:00:00 - - - - - - -
20.05.2018 14:00:00 21,6 20,1 21 11 WNW 1013,1 20
20.05.2018 13:00:00 - - - - - - -
20.05.2018 12:00:00 - - - - - - -
20.05.2018 11:00:00 20,4 19,1 5 3 ONO 1013,5 20
20.05.2018 10:00:00 - - - - - - -
20.05.2018 09:00:00 - - - - - - -
20.05.2018 08:00:00 15,0 14,5 4 2 O 1013,7 12
20.05.2018 07:00:00 - - - - - - -
20.05.2018 06:00:00 - - - - - - -
20.05.2018 05:00:00 - - - - - - -
20.05.2018 04:00:00 - - - - - - -
20.05.2018 03:00:00 - - - - - - -
20.05.2018 02:00:00 - - - - - - -
20.05.2018 01:00:00 - - - - - - -
20.05.2018 00:00:00 - - - - - - -
19.05.2018 23:00:00 - - - - - - -
19.05.2018 22:00:00 - - - - - - -
19.05.2018 21:00:00 - - - - - - -
19.05.2018 20:00:00 17,0 17,0 13 7 WZW 1014,1 20
19.05.2018 19:00:00 - - - - - - -
19.05.2018 18:00:00 - - - - - - -
19.05.2018 17:00:00 19,0 19,0 16 9 W 1014,8 20
19.05.2018 16:00:00 - - - - - - -
19.05.2018 15:00:00 - - - - - - -
19.05.2018 14:00:00 19,4 19,2 24 13 NW 1015,2 20
19.05.2018 13:00:00 - - - - - - -
19.05.2018 12:00:00 - - - - - - -
19.05.2018 11:00:00 18,2 16,9 11 6 NO 1015,2 20
19.05.2018 10:00:00 - - - - - - -
19.05.2018 09:00:00 - - - - - - -
19.05.2018 08:00:00 15,0 14,5 5 3 O 1015,1 12
19.05.2018 07:00:00 - - - - - - -
19.05.2018 06:00:00 - - - - - - -
19.05.2018 05:00:00 - - - - - - -
19.05.2018 04:00:00 - - - - - - -
19.05.2018 03:00:00 - - - - - - -
19.05.2018 02:00:00 - - - - - - -
19.05.2018 01:00:00 - - - - - - -
19.05.2018 00:00:00 - - - - - - -
18.05.2018 23:00:00 - - - - - - -
18.05.2018 22:00:00 - - - - - - -
18.05.2018 21:00:00 - - - - - - -
18.05.2018 20:00:00 17,8 17,8 11 6 W 1015,2 20
18.05.2018 19:00:00 - - - - - - -
18.05.2018 18:00:00 - - - - - - -
18.05.2018 17:00:00 19,0 19,0 21 11 WNW 1015,1 20
18.05.2018 16:00:00 - - - - - - -
18.05.2018 15:00:00 - - - - - - -
18.05.2018 14:00:00 18,8 18,0 16 9 W 1015,2 18
18.05.2018 13:00:00 - - - - - - -
18.05.2018 12:00:00 - - - - - - -
18.05.2018 11:00:00 18,4 16,7 15 8 OZO 1015,0 10
18.05.2018 10:00:00 - - - - - - -
18.05.2018 09:00:00 - - - - - - -
18.05.2018 08:00:00 14,0 13,5 15 8 O 1014,6 18
18.05.2018 07:00:00 - - - - - - -
18.05.2018 06:00:00 - - - - - - -
18.05.2018 05:00:00 - - - - - - -
18.05.2018 04:00:00 - - - - - - -
18.05.2018 03:00:00 - - - - - - -
18.05.2018 02:00:00 - - - - - - -
18.05.2018 01:00:00 - - - - - - -
18.05.2018 00:00:00 - - - - - - -
17.05.2018 23:00:00 - - - - - - -
17.05.2018 22:00:00 - - - - - - -
17.05.2018 21:00:00 - - - - - - -
17.05.2018 20:00:00 17,8 17,8 8 4 WNW 1014,0 20
17.05.2018 19:00:00 - - - - - - -
17.05.2018 18:00:00 - - - - - - -
17.05.2018 17:00:00 17,8 17,2 16 9 W 1014,2 20
17.05.2018 16:00:00 - - - - - - -
17.05.2018 15:00:00 - - - - - - -
17.05.2018 14:00:00 17,6 16,5 11 6 W 1015,0 20
17.05.2018 13:00:00 - - - - - - -
17.05.2018 12:00:00 - - - - - - -
17.05.2018 11:00:00 16,8 15,5 8 4 NW 1015,7 20
17.05.2018 10:00:00 - - - - - - -
17.05.2018 09:00:00 - - - - - - -
17.05.2018 08:00:00 14,0 13,4 5 3 WNW 1015,5 15
17.05.2018 07:00:00 - - - - - - -
17.05.2018 06:00:00 - - - - - - -
17.05.2018 05:00:00 - - - - - - -
17.05.2018 04:00:00 - - - - - - -
17.05.2018 03:00:00 - - - - - - -
17.05.2018 02:00:00 - - - - - - -
17.05.2018 01:00:00 - - - - - - -
17.05.2018 00:00:00 - - - - - - -
16.05.2018 23:00:00 - - - - - - -
16.05.2018 22:00:00 - - - - - - -
16.05.2018 21:00:00 - - - - - - -
16.05.2018 20:00:00 16,0 15,5 9 5 WNW 1015,8 20
16.05.2018 19:00:00 - - - - - - -
16.05.2018 18:00:00 - - - - - - -
16.05.2018 17:00:00 17,4 16,6 18 10 WNW 1016,1 20
16.05.2018 16:00:00 - - - - - - -
16.05.2018 15:00:00 - - - - - - -
16.05.2018 14:00:00 17,4 16,1 18 10 W 1017,3 20
16.05.2018 13:00:00 - - - - - - -
16.05.2018 12:00:00 - - - - - - -
16.05.2018 11:00:00 15,4 14,6 9 5 WNW 1016,8 18
16.05.2018 10:00:00 - - - - - - -
16.05.2018 09:00:00 - - - - - - -
16.05.2018 08:00:00 14,6 13,8 13 7 W 1016,2 15
16.05.2018 07:00:00 - - - - - - -
16.05.2018 06:00:00 - - - - - - -
16.05.2018 05:00:00 - - - - - - -
16.05.2018 04:00:00 - - - - - - -
16.05.2018 03:00:00 - - - - - - -
16.05.2018 02:00:00 - - - - - - -
16.05.2018 01:00:00 - - - - - - -
16.05.2018 00:00:00 - - - - - - -
15.05.2018 23:00:00 - - - - - - -
15.05.2018 22:00:00 - - - - - - -
15.05.2018 21:00:00 - - - - - - -
15.05.2018 20:00:00 12,4 12,1 31 17 WNW 1015,7 12
15.05.2018 19:00:00 - - - - - - -

tt = temperatuur
td = dauwpunt
ff = windsnelheid
dd = windrichting
ppp = luchtdruk
vv = zicht

Weerstations in de omgeving